Powrót do katalogu

VINDLER 2.1

AktywnyNaukaSSO
NORAD 68488·PAYLOAD·🇺🇸 United States

Wystrzelony Mar 30, 2026 z Vandenberg Space Force Base

Loading…

Następne Przeloty (najbliższe 24 godziny)

TLE

ŚwieżeSource: Space-Track

Epoka: Sep 13, 2026, 15:07 UTC

1 68488U 26067CA  26256.63049208  .00001391  00000-0  14201-3 0  9993
2 68488  97.7663 213.5618 0002602  96.6720 263.4796 14.92220553 24916

Śledź VINDLER 2.1 w czasie rzeczywistym z AllMySat

Download on the App Store